Вернуться в каталог

CZ-6A DEB

АктивенSSO
NORAD 54402·DEBRIS·🇨🇳 China

Запущен Nov 11, 2022 с Taiyuan Satellite Launch Center

Loading…

Ближайшие Пролёты (ближайшие 24 часа)

TLE

СвежийSource: Space-Track

Эпоха: Sep 14, 2026, 07:55 UTC

1 54402U 22151EA  26257.33032386  .00001500  00000-0  76927-3 0  9996
2 54402  98.7238 225.1004 0144456  11.3587 349.0787 14.11617643196993

Отслеживайте CZ-6A DEB в реальном времени с AllMySat

Download on the App Store